Location: Nitra
(0.0000°N, 18.0833°E)
Time: 21:56:39
(UTC+01:00)

SR - All Passes

Search period start: 21 March 2023 00:00
Search period end: 31 March 2023 01:00
Orbit: 582 x 866 km, 66.7° (Epoch: 21 March)

Date Brightness Start Highest point End Pass type
(mag) Time Alt. Az. Time Alt. Az. Time Alt. Az.
21 Mar - 00:30:23 10° SSE 00:33:43 17° ESE 00:36:54 10° ENE night (unlit)
21 Mar - 02:10:54 10° SW 02:15:32 30° WNW 02:19:52 10° N night (unlit)
21 Mar - 12:53:55 10° N 12:58:11 35° ENE 13:02:47 10° SE daylight
21 Mar - 14:38:07 10° W 14:40:03 12° WSW 14:42:01 10° SW daylight
22 Mar - 01:19:36 10° SSW 01:25:01 84° WNW 01:29:58 10° NNE night (unlit)
22 Mar - 12:05:40 10° NE 12:07:42 13° ENE 12:09:47 10° E daylight
22 Mar - 13:45:01 10° NW 13:49:17 33° WSW 13:53:54 10° S daylight
23 Mar - 00:29:27 10° S 00:34:23 36° ESE 00:38:56 10° NE night (unlit)
23 Mar - 02:13:33 10° W 02:15:59 13° WNW 02:18:21 10° NW night (unlit)
23 Mar - 12:53:57 10° NNW 12:58:39 86° ENE 13:03:48 10° SSE daylight
23 Mar - 23:40:59 10° SE 23:43:37 14° ESE 23:46:10 10° E night (unlit)
24 Mar - 01:20:38 10° SW 01:25:29 36° WNW 01:29:59 10° N night (unlit)
24 Mar - 12:04:02 10° N 12:08:07 30° ENE 12:12:31 10° SE daylight
24 Mar - 13:47:12 10° WNW 13:49:56 15° WSW 13:52:45 10° SSW daylight
25 Mar - 00:29:33 10° SSW 00:34:56 82° ESE 00:39:51 10° NNE night (unlit)
25 Mar - 11:16:51 10° ENE 11:17:37 10° ENE 11:18:24 10° E daylight
25 Mar - 12:54:44 10° NW 12:59:10 40° WSW 13:04:01 10° S daylight
25 Mar - 23:39:35 10° S 23:44:16 30° ESE 23:48:37 10° NE night (unlit)
26 Mar - 01:22:50 10° WSW 01:25:55 16° WNW 01:28:52 10° NW night (unlit)
26 Mar - 13:03:51 10° NNW 13:08:33 72° ENE 13:13:41 10° SSE daylight
26 Mar - 23:51:53 10° SE 23:53:29 11° ESE 23:55:02 10° E night (unlit)
27 Mar - 01:30:24 10° SW 01:35:24 43° WNW 01:40:01 10° N night (unlit)
27 Mar - 12:14:08 10° NNE 12:18:01 25° ENE 12:22:10 10° SE daylight
27 Mar - 13:56:31 10° WNW 13:59:47 18° WSW 14:03:13 10° SSW daylight
28 Mar - 00:39:29 10° SSW 00:44:49 69° ESE 00:49:41 10° NNE night (unlit)
28 Mar - 13:04:27 10° NW 13:09:02 48° WSW 13:14:03 10° S daylight
28 Mar - 23:49:45 10° SSE 23:54:07 25° ESE 23:58:12 10° NE night (unlit)
29 Mar - 01:32:14 10° WSW 01:35:48 19° WNW 01:39:12 10° NNW night (unlit)
29 Mar - 12:13:46 10° N 12:18:25 60° ENE 12:23:32 10° SSE daylight
30 Mar - 00:40:09 10° SSW 00:45:17 51° WNW 00:49:59 10° N night (unlit)
30 Mar - 11:24:18 10° NNE 11:27:54 21° ENE 11:31:43 10° ESE daylight
30 Mar - 13:05:56 10° WNW 13:09:36 21° WSW 13:13:31 10° SSW daylight
30 Mar - 23:49:26 10° S 23:54:40 57° ESE 23:59:27 10° NNE night (unlit)
